#timestamp,LO_Frequency,Hit,StdDev 
1582477215.4,286047001.9,N
1582477235.2,286047002.0,N
1582477255.0,286047001.6,N
1582477255.9,286047001.6,N
1582477275.8,286047000.4,N
1582477295.6,286046998.8,N
1582477315.4,286046996.9,N
1582477335.3,286047003.8,N
1582477355.1,286047003.1,N
1582477375.9,286047007.6,N
1582477395.7,286047001.3,N
1582477415.5,286046999.9,N
1582477435.4,286047002.0,N
1582477455.2,286047001.9,N
1582477475.1,286047000.0,N
1582477476.0,286047000.0,N
1582477495.8,286047004.2,N
1582477515.6,286047001.2,N
1582477535.5,286047003.9,N
1582477555.3,286047002.9,N
1582477575.1,286047002.4,N
1582477595.9,286046999.9,N
1582477615.7,286047007.8,N
1582477635.6,286047007.4,N
1582477655.4,286047005.5,N
1582477675.2,286047004.2,N
1582477695.1,286046999.8,N
1582477696.0,286046999.8,N
1582477715.8,286046999.8,N
1582477735.7,286047000.8,N
1582477755.5,286046997.8,N
1582477775.3,286046997.9,N
1582477795.2,286046997.0,N
1582477815.0,286046996.7,N
1582477815.9,286046996.7,N
1582477835.7,286046995.4,N
1582477855.6,286046997.8,N
1582477875.4,286046995.4,N
1582477895.3,286046997.9,N
1582477915.1,286046997.0,N
1582477916.0,286046997.0,N
1582477935.8,286047000.5,N
1582477955.7,286047009.0,N
1582477975.5,286047013.8,Y
1582477995.4,286047010.4,P
1582478015.2,286047006.4,N
1582478035.0,286047009.2,N
1582478035.9,286047009.2,N
1582478055.8,286047005.7,N
1582478075.6,286047003.8,N
1582478095.5,286047001.6,N
1582478115.3,286047000.1,N
1582478135.1,286047000.6,N
1582478155.9,286047002.7,N
1582478175.7,286047002.6,N
1582478195.5,286047006.8,N
1582478215.4,286047003.2,N
1582478235.2,286047004.2,N
1582478255.1,286047003.5,N
1582478256.0,286047003.5,N
1582478275.8,286047001.9,N
1582478295.6,286047002.5,N
1582478315.5,286047002.2,N
1582478335.3,286047004.4,N
1582478355.2,286047004.3,N
1582478375.9,286047002.6,N
1582478395.7,286046998.4,N
1582478415.6,286046996.9,N
1582478435.4,286046997.3,N
1582478455.2,286046994.9,N
1582478475.1,286046995.2,N
1582478476.0,286046995.2,N
1582478495.8,286046995.6,N
1582478515.7,286046996.8,N
1582478535.5,286046995.6,N
1582478555.3,286046998.3,N
1582478575.2,286046999.8,N
1582478595.0,286047001.9,N
1582478595.9,286047001.9,N
1582478615.8,286047002.4,N
1582478635.6,286046998.8,N
1582478655.4,286046999.9,N
1582478675.3,286046996.8,N
1582478695.1,286046997.2,N
1582478715.8,286046995.3,N
1582478735.7,286046993.3,N
1582478755.5,286046997.6,N
1582478775.4,286046997.1,N
1582478795.2,286046998.0,N
1582478815.0,286046997.2,N
1582478815.9,286046997.2,N
1582478835.8,286046997.5,N
1582478855.6,286046994.9,N
1582478875.4,286046995.4,N
1582478895.3,286047002.7,N
1582478915.1,286047004.9,N
1582478935.9,286047005.7,N
1582478955.7,286047004.2,N
1582478975.5,286047002.4,N
1582478995.4,286046998.8,N
1582479015.2,286047000.0,N
1582479035.1,286047010.2,Y
1582479036.0,286047010.2,P
1582479055.8,286047010.5,N
1582479075.6,286047009.8,N
1582479095.5,286047008.1,N
1582479115.3,286047006.9,N
1582479135.1,286047004.5,N
1582479155.9,286047005.5,N
1582479175.7,286047002.6,N
1582479195.6,286047001.1,N
1582479215.4,286047000.9,N
1582479235.2,286046999.9,N
1582479255.1,286046998.1,N
1582479256.0,286046998.1,N
1582479275.8,286046998.4,N
1582479295.7,286046998.6,N
1582479315.5,286046999.2,N
1582479335.3,286046997.2,N
1582479355.2,286046995.7,N
1582479375.0,286046997.1,N
1582479375.9,286046997.1,N
1582479395.7,286046999.4,N
1582479415.6,286047000.5,N
1582479435.4,286047000.2,N
1582479455.3,286047000.1,N
1582479475.1,286047002.4,N
1582479495.8,286046999.8,N
1582479515.7,286047002.4,N
1582479535.5,286047000.9,N
1582479555.4,286047000.9,N
1582479575.2,286046998.3,N
1582479595.0,286046999.6,N
1582479595.9,286046999.6,N
1582479615.8,286046997.5,N
1582479635.6,286046998.9,N
1582479655.5,286046998.6,N
1582479675.3,286047000.3,N
1582479695.1,286047000.7,N
1582479715.9,286047001.0,N
1582479735.7,286046998.3,N
1582479755.5,286047002.4,N
1582479775.4,286046999.7,N
1582479795.2,286047001.1,N
1582479815.1,286046996.6,N
1582479816.0,286046996.6,N
1582479835.8,286047002.4,N
1582479855.6,286047001.3,N
1582479875.5,286047009.5,Y
1582479895.3,286047012.0,P
1582479915.1,286047007.0,N
1582479935.9,286047001.5,N
1582479955.7,286047002.4,N
1582479975.6,286047007.2,N
1582479995.4,286047004.7,N
1582480015.2,286047006.5,N
1582480035.1,286047007.2,N
1582480036.0,286047007.2,N
1582480055.8,286047007.0,N
1582480075.7,286047005.2,N
1582480095.5,286047003.9,N
1582480115.4,286047002.1,N
1582480135.2,286047002.3,N
1582480155.0,286047002.5,N
1582480155.9,286047002.5,N
1582480175.8,286046999.8,N
1582480195.6,286047002.8,N
1582480215.5,286047000.1,N
1582480235.3,286047002.3,N
1582480255.1,286047002.6,N
1582480275.9,286047000.4,N
1582480295.7,286047000.4,N
1582480315.6,286046998.5,N
1582480335.4,286046999.3,N
1582480355.2,286046998.5,N
1582480375.1,286047001.2,N
1582480376.0,286047001.2,N
1582480395.8,286047001.1,N
1582480415.7,286047002.8,N
1582480435.5,286047000.0,N
1582480455.3,286047001.0,N
1582480475.2,286046998.5,N
1582480495.0,286046998.3,N
1582480495.9,286046998.3,N
1582480515.8,286046998.3,N
1582480535.6,286046997.9,N
1582480555.4,286046997.9,N
1582480575.3,286046997.2,N
1582480595.1,286046998.7,N
1582480615.9,286046996.5,N
1582480635.7,286046999.8,N
1582480655.5,286047003.2,N
1582480675.4,286047004.3,N
1582480695.2,286047004.3,N
1582480715.0,286047005.5,N
1582480715.9,286047005.5,N
1582480735.8,286047003.2,N
1582480755.6,286047001.7,N
1582480775.5,286047007.1,N
1582480795.3,286047006.2,N
